Flag for U.S.A. Weather past 2 weeks in Norfolk, Virginia, U.S.A.

Now
70 °F

Passing clouds.


Feels Like: 71 °F
Forecast: 64 / 75 °F
Wind: 7 mph from East

Location: Norfolk Naval Air Station

Current Time: Oct 1, 2014 at 11:02:43 PM

Latest Report: Oct 1, 2014 at 9:59 PM


Visibility: 10 mi

Pressure: 30.06 "Hg

Humidity: 79%

Dew point: 63 °F

Location of NorfolkLocation

Historic Weather in Norfolk — Graph

°F

Norfolk temperature yesterday

Maximum temperature yesterday: 76 °F (at 2:59 PM)
Minimum temperature yesterday: 66 °F (at 3:59 AM)
Average temperature yesterday: 70 °F

Past Weeks' High & Low Weather Summary

 TemperatureHumidityPressure
High81 °F (Sep 21, 4:59 PM)93% (Sep 24, 8:59 PM)30.34 "Hg (Sep 24, 8:59 PM)
Low62 °F (Sep 28, 1:59 AM)40% (Sep 22, 10:59 AM)29.72 "Hg (Sep 21, 3:59 PM)
Average71 °F73%30.09 "Hg
* Reported Sep 16 9:59 PM — Oct 1 9:59 PM, Norfolk, Weather by CustomWeather, © 2014

Note: Actual official high and low records may vary slightly from our data, if they occured in-between our weather recording intervals... More about our weather records

Advertising

Norfolk weather history for previous 24 hours

 ConditionsComfort  
Time TempWeatherWind HumidityBarometerVisibility
9:59 PM
Oct 1
70 °FPassing clouds.7 mph79%30.06 "Hg10 mi
8:59 PM71 °FOvercast.7 mph76%30.04 "Hg10 mi
7:59 PM70 °FPassing clouds.6 mph81%30.03 "Hg10 mi
6:59 PM71 °FBroken clouds.7 mph76%30.01 "Hg10 mi
5:59 PM72 °FPassing clouds.9 mph71%30.01 "Hg10 mi
4:59 PM74 °FPassing clouds.10 mph67%30.00 "Hg10 mi
3:59 PM75 °FPassing clouds.12 mph66%30.00 "Hg10 mi
2:59 PM75 °FPassing clouds.12 mph66%30.00 "Hg10 mi
1:59 PM75 °FPassing clouds.12 mph66%30.00 "Hg10 mi
12:59 PM74 °FPassing clouds.13 mph71%30.02 "Hg10 mi
11:59 AM74 °FScattered clouds.13 mph69%30.02 "Hg10 mi
10:59 AM74 °FScattered clouds.13 mph67%30.02 "Hg10 mi
9:59 AM73 °FPassing clouds.10 mph71%30.01 "Hg10 mi
8:59 AM71 °FPassing clouds.12 mph73%29.98 "Hg10 mi
7:59 AM70 °FPassing clouds.13 mph81%29.97 "Hg10 mi
6:59 AM68 °FPassing clouds.6 mph87%29.95 "Hg10 mi
5:59 AM68 °FPassing clouds.8 mph78%29.94 "Hg10 mi
4:59 AM69 °FPartly cloudy.8 mph84%29.93 "Hg10 mi
3:59 AM68 °FPassing clouds.6 mph84%29.92 "Hg10 mi
2:59 AM69 °FPassing clouds.8 mph84%29.93 "Hg10 mi
1:59 AM69 °FPassing clouds.8 mph84%29.93 "Hg10 mi
12:59 AM70 °FPassing clouds.7 mph81%29.93 "Hg10 mi
11:59 PM
Sep 30
70 °FPassing clouds.6 mph84%29.93 "Hg10 mi
Weather by CustomWeather, © 2014

See weather overviewHow to use our weather pages